Date String (YYYY-MM-DD hh:mm:ss) UTC,Instrument flags,Ambient pressure (hPa),Sample flow (lpm),Bypass flow (lpm),Sample temperature (°C),Ambient temperature (°C),ASC tube jacket temperature (°C),LED temperature (°C),Box temperature (°C),Sample RH (%),Mass concentration (μg/m³),Mass concentration (μg/m³)
DateTimeUTC,F1_M11,P_M11,Q1_M11,Q2_M11,T1_M11,T2_M11,T3_M11,T4_M11,T5_M11,U1_M11,X0_M11,X2_M11
2021-08-15 22:00:00,,0829.6,4.99,0.00,28.9,26.2,00.0,38.0,30.4,21.7,0017.17,0010.38
2021-08-15 22:01:00,,0829.5,5.00,0.00,28.9,26.6,00.0,37.9,30.6,22.8,0017.23,0010.51
2021-08-15 22:02:00,,0829.5,4.98,0.00,28.9,27.0,00.0,37.9,30.7,23.7,0017.17,0010.59
2021-08-15 22:03:00,,0829.5,5.01,0.00,28.9,27.4,00.0,37.9,30.8,23.7,0017.09,0010.65
2021-08-15 22:04:00,,0829.5,5.01,0.00,29.0,27.7,00.0,37.9,30.9,22.8,0017.15,0010.62
2021-08-15 22:05:00,,0829.5,4.99,0.00,29.0,28.0,00.0,38.0,31.0,22.8,0017.23,0010.57
2021-08-15 22:06:00,,0829.5,5.01,0.00,29.1,28.2,00.0,38.0,31.1,23.1,0017.10,0010.47
2021-08-15 22:07:00,,0829.5,4.99,0.00,29.2,28.4,00.0,38.0,31.2,23.2,0017.68,0010.36
2021-08-15 22:08:00,,0829.5,5.02,0.00,29.2,27.7,00.0,38.0,30.9,22.4,0017.53,0010.18
2021-08-15 22:09:00,,0829.3,4.99,0.00,29.1,26.1,00.0,38.0,30.5,22.1,0016.20,0009.97
2021-08-15 22:10:00,,0829.3,5.01,0.00,29.0,25.8,00.0,38.0,30.4,22.7,0015.37,0009.71
2021-08-15 22:11:00,,0829.3,5.00,0.00,28.9,26.2,00.0,38.0,30.5,22.4,0015.17,0009.45
2021-08-15 22:12:00,,0829.3,5.01,0.00,28.9,26.6,00.0,38.0,30.6,22.8,0014.97,0009.27
2021-08-15 22:13:00,,0829.2,5.00,0.00,28.9,27.1,00.0,38.0,30.7,22.5,0014.86,0009.11
2021-08-15 22:14:00,,0829.4,4.99,0.00,29.0,27.4,00.0,38.0,30.8,22.2,0014.70,0008.99
2021-08-15 22:15:00,,0829.2,5.01,0.00,29.0,27.8,00.0,38.0,30.9,22.5,0014.68,0008.89
2021-08-15 22:16:00,,0829.2,5.00,0.00,29.1,28.0,00.0,38.0,31.1,22.4,0014.37,0008.76
2021-08-15 22:17:00,,0829.3,5.00,0.00,29.2,28.3,00.0,38.0,31.1,22.4,0014.17,0008.68
2021-08-15 22:18:00,,0829.2,5.01,0.00,29.2,27.8,00.0,38.1,31.0,22.0,0013.54,0008.64
2021-08-15 22:19:00,,0829.2,5.00,0.00,29.1,26.2,00.0,38.0,30.5,21.0,0014.02,0008.64
2021-08-15 22:20:00,,0829.2,4.99,0.00,29.0,25.8,00.0,38.0,30.4,21.1,0013.51,0008.62
2021-08-15 22:21:00,,0829.2,5.02,0.00,28.9,26.3,00.0,38.0,30.5,21.4,0013.52,0008.60
2021-08-15 22:22:00,,0829.2,5.00,0.00,28.9,26.7,00.0,38.0,30.6,21.8,0013.07,0008.60
2021-08-15 22:23:00,,0829.3,4.99,0.00,28.9,27.1,00.0,38.0,30.7,21.5,0013.84,0008.57
2021-08-15 22:24:00,,0829.2,5.01,0.00,29.0,27.4,00.0,38.0,30.9,21.2,0013.65,0008.50
2021-08-15 22:25:00,,0829.3,4.99,0.00,29.1,27.8,00.0,38.0,31.0,20.8,0013.55,0008.46
2021-08-15 22:26:00,,0829.2,5.00,0.00,29.1,28.0,00.0,38.0,31.1,21.2,0013.34,0008.45
2021-08-15 22:27:00,,0829.3,4.99,0.00,29.2,28.2,00.0,38.1,31.1,20.8,0013.35,0008.44
2021-08-15 22:28:00,,0829.3,5.00,0.00,29.2,27.1,00.0,38.1,30.8,21.0,0013.28,0008.42
2021-08-15 22:29:00,,0829.2,5.01,0.00,29.0,25.8,00.0,38.0,30.4,20.5,0013.29,0008.48
2021-08-15 22:30:00,,0829.2,5.00,0.00,28.9,25.9,00.0,38.0,30.4,20.8,0012.57,0008.51
2021-08-15 22:31:00,,0829.1,5.00,0.00,28.9,26.4,00.0,38.0,30.5,20.7,0012.76,0008.57
2021-08-15 22:32:00,,0829.1,4.99,0.00,28.9,26.8,00.0,38.0,30.6,20.7,0013.46,0008.58
2021-08-15 22:33:00,,0829.1,5.00,0.00,29.0,27.2,00.0,38.0,30.8,21.0,0013.34,0008.55
2021-08-15 22:34:00,,0829.1,5.00,0.00,29.0,27.5,00.0,38.0,30.9,20.6,0012.53,0008.54
2021-08-15 22:35:00,,0829.1,5.00,0.00,29.1,27.8,00.0,38.0,31.0,20.5,0012.58,0008.56
2021-08-15 22:36:00,,0829.1,4.99,0.00,29.1,28.1,00.0,38.0,31.1,20.4,0012.64,0008.60
2021-08-15 22:37:00,,0829.1,5.01,0.00,29.2,28.0,00.0,38.1,31.0,21.2,0012.92,0008.60
2021-08-15 22:38:00,,0829.1,5.00,0.00,29.1,26.4,00.0,38.0,30.5,20.9,0013.02,0008.66
2021-08-15 22:39:00,,0829.1,5.01,0.00,28.9,25.7,00.0,38.0,30.3,20.7,0013.29,0008.79
2021-08-15 22:40:00,,0829.0,5.00,0.00,28.9,26.0,00.0,38.0,30.4,21.3,0013.66,0008.80
2021-08-15 22:41:00,,0829.1,5.01,0.00,28.9,26.4,00.0,38.0,30.5,21.0,0013.58,0008.77
2021-08-15 22:42:00,,0829.1,4.99,0.00,28.9,26.9,00.0,38.0,30.7,20.6,0013.56,0008.77
2021-08-15 22:43:00,,0829.1,5.00,0.00,28.9,27.3,00.0,38.0,30.8,20.3,0013.03,0008.83
2021-08-15 22:44:00,,0829.2,5.01,0.00,29.0,27.6,00.0,38.0,30.9,21.0,0012.95,0008.86
2021-08-15 22:45:00,,0829.2,5.00,0.00,29.0,27.9,00.0,38.0,31.0,21.4,0012.86,0008.87
2021-08-15 22:46:00,,0829.2,5.00,0.00,29.1,28.2,00.0,38.0,31.1,21.1,0012.88,0008.91
2021-08-15 22:47:00,,0829.2,5.00,0.00,29.2,28.4,00.0,38.0,31.2,20.9,0012.79,0008.88
2021-08-15 22:48:00,,0829.2,5.01,0.00,29.2,27.7,00.0,38.1,30.9,20.2,0012.61,0008.90
2021-08-15 22:49:00,,0829.2,5.00,0.00,29.1,26.0,00.0,38.0,30.5,20.0,0012.58,0008.97
2021-08-15 22:50:00,,0829.3,5.01,0.00,29.0,25.8,00.0,38.0,30.4,20.2,0012.43,0008.93
2021-08-15 22:51:00,,0829.2,5.00,0.00,28.9,26.2,00.0,38.0,30.5,20.6,0012.03,0008.93
2021-08-15 22:52:00,,0829.2,5.01,0.00,28.9,26.6,00.0,38.0,30.6,20.8,0011.99,0008.96
2021-08-15 22:53:00,,0829.2,5.00,0.00,28.9,27.0,00.0,38.0,30.7,20.4,0012.13,0009.05
2021-08-15 22:54:00,,0829.2,4.99,0.00,29.0,27.4,00.0,38.0,30.8,19.7,0012.21,0009.10
2021-08-15 22:55:00,,0829.3,5.01,0.00,29.1,27.7,00.0,38.0,31.0,19.9,0012.61,0009.20
2021-08-15 22:56:00,,0829.2,4.99,0.00,29.1,28.0,00.0,38.0,31.0,19.9,0013.12,0009.30
2021-08-15 22:57:00,,0829.2,5.02,0.00,29.2,28.3,00.0,38.0,31.1,20.2,0013.18,0009.37
2021-08-15 22:58:00,,0829.4,4.99,0.00,29.2,28.4,00.0,38.1,31.2,19.7,0013.28,0009.43
2021-08-15 22:59:00,,0829.2,5.01,0.00,29.2,27.2,00.0,38.1,30.8,20.0,0013.31,0009.48
